FW5164 Weather Reports


Display with metric or nautical units.
time (UTC)temp
F
wind
direction
speed
MPH
gust
MPH
rain 1hr
in
rain 24hr
in
rain mn
in
humidity
%
barometer
mb
20260505153107 74 146 11.0 23.0 0.00 0.00 0.00 80 1007.8
20260505153100 74 277 9.0 18.0 0.00 0.00 0.00 81 1008.1
20260505152552 74 126 13.0 23.0 0.00 0.00 0.00 80 1007.8
20260505152051 74 162 13.0 24.0 0.00 0.00 0.00 80 1007.9
20260505151603 73 233 9.0 15.0 0.00 0.00 0.00 81 1008.2
20260505151552 73 121 14.0 24.0 0.00 0.00 0.00 80 1007.8
20260505151049 73 166 13.0 24.0 0.00 0.00 0.00 80 1007.8
20260505150549 73 136 10.0 25.0 0.00 0.00 0.00 80 1007.9
20260505140549 72 146 12.0 23.0 0.00 0.00 0.00 82 1007.7
20260505140110 72 249 7.0 16.0 0.00 0.00 0.00 81 1008.1
20260505124607 71 223 6.0 15.0 0.00 0.00 0.00 82 1007.8
20260505124049 70 172 10.0 19.0 0.00 0.00 0.00 83 1007.1
20260505123551 70 144 10.0 19.0 0.00 0.00 0.00 83 1007.0
20260505123100 70 158 11.0 21.0 0.00 0.00 0.00 83 1006.8
20260505123055 71 216 5.0 16.0 0.00 0.00 0.00 82 1007.4
20260505122549 70 119 10.0 21.0 0.00 0.00 0.00 83 1006.8
20260505122048 70 169 12.0 19.0 0.00 0.00 0.00 83 1006.7
20260505121557 70 163 11.0 20.0 0.00 0.00 0.00 83 1006.8
20260505121552 71 258 6.0 14.0 0.00 0.00 0.00 82 1007.4
20260505121052 70 137 11.0 20.0 0.00 0.00 0.00 83 1006.8
20260505120548 70 132 9.0 20.0 0.00 0.00 0.00 83 1006.9
20260505120103 70 92 11.0 18.0 0.00 0.00 0.00 84 1006.9
20260505120055 71 210 7.0 15.0 0.00 0.00 0.00 82 1007.3
20260505115550 70 146 9.0 17.0 0.00 0.00 0.00 84 1006.9
20260505115048 70 145 11.0 21.0 0.00 0.00 0.00 84 1006.6
20260505114559 71 244 7.0 12.0 0.00 0.00 0.00 83 1007.2
20260505114554 70 142 11.0 21.0 0.00 0.00 0.00 84 1006.6
20260505114049 70 168 12.0 21.0 0.00 0.00 0.00 84 1006.6
20260505113548 70 117 10.0 20.0 0.00 0.00 0.00 84 1006.6
20260505113111 70 171 10.0 20.0 0.00 0.00 0.00 84 1006.5
20260505113109 71 217 5.0 15.0 0.00 0.00 0.00 83 1006.9
20260505112550 70 125 13.0 20.0 0.00 0.00 0.00 84 1006.7
20260505112049 70 155 9.0 23.0 0.00 0.00 0.00 84 1006.8
20260505111554 70 107 11.0 23.0 0.00 0.00 0.00 84 1006.6
20260505111552 71 263 8.0 16.0 0.00 0.00 0.00 83 1006.9
20260505111053 70 118 12.0 20.0 0.00 0.00 0.00 84 1006.6
20260505110549 70 118 10.0 18.0 0.00 0.00 0.00 84 1006.4
20260505102049 70 140 11.0 24.0 0.00 0.00 0.00 83 1006.7
20260505101554 71 240 6.0 14.0 0.00 0.00 0.00 82 1007.5
20260505101550 70 146 11.0 23.0 0.00 0.00 0.00 83 1006.9
20260505101053 70 138 11.0 24.0 0.00 0.00 0.00 83 1007.0
20260505100549 70 194 11.0 24.0 0.00 0.00 0.00 83 1007.1
20260505100049 70 235 9.0 17.0 0.00 0.00 0.00 82 1007.1
20260505095549 70 191 11.0 25.0 0.00 0.00 0.00 83 1006.9
20260505095049 70 138 13.0 25.0 0.00 0.00 0.00 83 1006.8
20260505094556 70 134 11.0 25.0 0.00 0.00 0.00 83 1006.8
20260505094549 70 234 7.0 16.0 0.00 0.00 0.00 82 1007.3
20260505094048 70 153 12.0 24.0 0.00 0.00 0.00 83 1006.9
20260505093548 70 134 14.0 24.0 0.00 0.00 0.00 83 1006.9
20260505093059 70 239 8.0 20.0 0.00 0.00 0.00 82 1007.1
20260505092548 70 148 13.0 27.0 0.00 0.00 0.00 83 1006.9
20260505092049 70 143 12.0 27.0 0.00 0.00 0.00 83 1006.8
20260505091601 70 238 8.0 20.0 0.00 0.00 0.00 82 1007.0
20260505091553 70 158 13.0 23.0 0.00 0.00 0.00 83 1006.7
20260505091048 70 183 9.0 22.0 0.00 0.00 0.00 83 1006.7
20260505090549 70 128 13.0 24.0 0.00 0.00 0.00 82 1006.8
20260505090059 70 101 8.0 24.0 0.00 0.00 0.00 82 1006.6
20260505090052 70 236 6.0 13.0 0.00 0.00 0.00 81 1007.2
20260505085549 70 150 13.0 24.0 0.00 0.00 0.00 82 1006.7
20260505085052 70 118 10.0 24.0 0.00 0.00 0.00 82 1006.8
20260505084555 70 126 14.0 22.0 0.00 0.00 0.00 82 1006.9
20260505084552 70 266 6.0 13.0 0.00 0.00 0.00 81 1007.2
20260505084050 70 144 12.0 23.0 0.00 0.00 0.00 82 1007.0
20260505083551 70 138 11.0 23.0 0.00 0.00 0.00 82 1007.0
20260505083100 70 248 8.0 16.0 0.00 0.00 0.00 81 1007.5
20260505083054 70 115 12.0 20.0 0.00 0.00 0.00 82 1007.0
20260505082548 70 117 11.0 19.0 0.00 0.00 0.00 82 1007.1
20260505082049 70 111 10.0 22.0 0.00 0.00 0.00 82 1007.3
20260505081605 70 141 10.0 22.0 0.00 0.00 0.00 82 1007.4
20260505081049 70 117 11.0 22.0 0.00 0.00 0.00 82 1007.4
20260505080548 70 128 11.0 23.0 0.00 0.00 0.00 82 1007.5
20260505080059 70 123 12.0 23.0 0.00 0.00 0.00 82 1007.6
20260505080053 70 261 9.0 17.0 0.00 0.00 0.00 81 1007.6
20260505075548 70 148 12.0 21.0 0.00 0.00 0.00 82 1007.6
20260505075048 70 132 12.0 21.0 0.00 0.00 0.00 82 1007.5
20260505074559 70 111 11.0 23.0 0.00 0.00 0.00 82 1007.4
20260505074553 70 243 8.0 19.0 0.00 0.00 0.00 81 1007.9
20260505074048 70 169 10.0 24.0 0.00 0.00 0.00 82 1007.5
20260505073548 70 148 12.0 24.0 0.00 0.00 0.00 82 1007.5
20260505073111 70 250 9.0 19.0 0.00 0.00 0.00 81 1008.2
20260505073100 70 138 13.0 24.0 0.00 0.00 0.00 82 1007.6
20260505072548 70 144 11.0 23.0 0.00 0.00 0.00 82 1007.7
20260505072048 70 132 13.0 23.0 0.00 0.00 0.00 82 1007.9
20260505071600 71 237 8.0 17.0 0.00 0.00 0.00 80 1008.4
20260505071552 70 123 14.0 23.0 0.00 0.00 0.00 82 1008.0
20260505071049 70 134 13.0 23.0 0.00 0.00 0.00 81 1007.9
20260505070550 70 133 12.0 23.0 0.00 0.00 0.00 82 1008.2
20260505070100 71 203 9.0 15.0 0.00 0.00 0.00 80 1008.5
20260505070052 70 175 11.0 23.0 0.00 0.00 0.00 82 1008.0
20260505065550 70 103 11.0 23.0 0.00 0.00 0.00 82 1008.2
20260505065049 70 140 12.0 21.0 0.00 0.00 0.00 82 1008.4
20260505064557 70 130 12.0 22.0 0.00 0.00 0.00 81 1008.3
20260505064552 71 238 7.0 16.0 0.00 0.00 0.00 80 1008.8
20260505064048 70 181 11.0 22.0 0.00 0.00 0.00 81 1008.4
20260505063548 70 146 10.0 21.0 0.00 0.00 0.00 81 1008.6
20260505063057 70 111 11.0 26.0 0.00 0.00 0.00 81 1008.6
20260505063053 71 254 9.0 19.0 0.00 0.00 0.00 79 1008.9
20260505062548 70 136 13.0 26.0 0.00 0.00 0.00 80 1008.3
20260505062049 71 132 12.0 25.0 0.00 0.00 0.00 80 1008.5
20260505061556 71 146 13.0 30.0 0.00 0.00 0.00 80 1008.4
20260505061048 71 134 13.0 30.0 0.00 0.00 0.00 80 1008.3
20260505060545 71 92 14.0 29.0 0.00 0.00 0.00 80 1008.5
20260505060059 71 119 12.0 20.0 0.00 0.00 0.00 80 1008.6
20260505060056 71 218 8.0 16.0 0.00 0.00 0.00 79 1008.6
20260505055551 71 115 11.0 23.0 0.00 0.00 0.00 79 1008.5
20260505055053 71 105 13.0 23.0 0.00 0.00 0.00 79 1008.5
20260505054600 71 120 13.0 21.0 0.00 0.00 0.00 79 1008.4
20260505054555 71 219 7.0 14.0 0.00 0.00 0.00 79 1008.8
20260505054053 71 92 12.0 21.0 0.00 0.00 0.00 79 1008.3
20260505053550 71 115 11.0 20.0 0.00 0.00 0.00 79 1008.6
20260505053115 71 143 11.0 23.0 0.00 0.00 0.00 78 1008.6
20260505053057 72 267 8.0 18.0 0.00 0.00 0.00 78 1009.1
20260505052551 71 138 13.0 23.0 0.00 0.00 0.00 78 1008.8
20260505052050 71 137 11.0 21.0 0.00 0.00 0.00 78 1008.8
20260505051602 72 238 7.0 15.0 0.00 0.00 0.00 78 1008.9
20260505051554 71 137 10.0 21.0 0.00 0.00 0.00 78 1008.7
20260505051051 72 123 8.0 23.0 0.00 0.00 0.00 78 1008.6
20260505050550 72 132 9.0 23.0 0.00 0.00 0.00 78 1008.6
20260505050107 72 134 10.0 21.0 0.00 0.00 0.00 78 1008.5
20260505041557 72 221 8.0 17.0 0.00 0.00 0.00 77 1008.9
20260505041549 72 119 14.0 21.0 0.00 0.00 0.00 76 1008.6
20260505041053 72 144 11.0 21.0 0.00 0.00 0.00 76 1008.5
20260505040554 72 132 11.0 20.0 0.00 0.00 0.00 76 1008.5
20260505040052 72 130 11.0 20.0 0.00 0.00 0.00 76 1008.5
20260505040049 72 207 5.0 19.0 0.00 0.00 0.00 76 1008.9
20260505035551 72 117 10.0 20.0 0.00 0.00 0.00 76 1008.5
20260505035050 72 123 10.0 20.0 0.00 0.00 0.00 76 1008.4
20260505034613 72 144 8.0 18.0 0.00 0.00 0.00 75 1008.5
20260505034553 73 221 7.0 12.0 0.00 0.00 0.00 76 1008.8
20260505034050 73 145 9.0 17.0 0.00 0.00 0.00 75 1008.5
20260505033550 73 144 9.0 17.0 0.00 0.00 0.00 74 1008.6
20260505033057 73 144 11.0 17.0 0.00 0.00 0.00 74 1008.7
20260505033053 73 225 6.0 12.0 0.00 0.00 0.00 75 1009.1
20260505032550 73 157 12.0 18.0 0.00 0.00 0.00 74 1008.8
20260505032049 73 96 10.0 21.0 0.00 0.00 0.00 73 1008.7
20260505031556 73 221 6.0 13.0 0.00 0.00 0.00 75 1008.8
20260505031051 73 118 12.0 21.0 0.00 0.00 0.00 73 1008.4
20260505030553 73 142 11.0 18.0 0.00 0.00 0.00 72 1008.5
20260505030056 74 132 10.0 18.0 0.00 0.00 0.00 72 1008.5
20260505025551 74 151 9.0 24.0 0.00 0.00 0.00 72 1008.4
20260505025050 74 158 13.0 24.0 0.00 0.00 0.00 72 1008.5
20260505024601 72 221 4.0 9.0 0.00 0.00 0.00 74 1008.6
20260505024552 74 98 11.0 18.0 0.00 0.00 0.00 72 1008.3
20260505024050 74 107 11.0 15.0 0.00 0.00 0.00 72 1008.1
20260505023549 73 138 9.0 15.0 0.00 0.00 0.00 72 1008.4
20260505023056 73 207 3.0 8.0 0.00 0.00 0.00 74 1008.5
20260505023053 73 150 8.0 12.0 0.00 0.00 0.00 72 1008.2
20260505022551 73 137 6.0 13.0 0.00 0.00 0.00 72 1008.2
20260505022045 73 121 8.0 13.0 0.00 0.00 0.00 72 1008.2
20260505021555 73 199 4.0 9.0 0.00 0.00 0.00 73 1008.6
20260505021549 73 120 8.0 13.0 0.00 0.00 0.00 72 1008.2
20260505021049 74 116 7.0 13.0 0.00 0.00 0.00 72 1008.4
20260505020548 74 117 7.0 12.0 0.00 0.00 0.00 72 1008.1
20260505020055 74 217 3.0 8.0 0.00 0.00 0.00 72 1008.5
20260505020049 74 94 6.0 12.0 0.00 0.00 0.00 72 1008.1
20260505015549 74 94 7.0 12.0 0.00 0.00 0.00 71 1008.1
20260505015049 74 118 7.0 12.0 0.00 0.00 0.00 71 1008.0
20260505014553 74 229 3.0 9.0 0.00 0.00 0.00 71 1008.3
20260505014551 74 85 7.0 13.0 0.00 0.00 0.00 71 1008.1
20260505014048 74 107 7.0 13.0 0.00 0.00 0.00 70 1008.0
20260505013548 74 136 8.0 13.0 0.00 0.00 0.00 70 1007.8
20260505013121 74 228 4.0 6.0 0.00 0.00 0.00 71 1008.2
20260505013053 75 96 8.0 13.0 0.00 0.00 0.00 70 1007.9
20260505012545 75 118 9.0 13.0 0.00 0.00 0.00 69 1007.9
20260505012045 75 121 7.0 12.0 0.00 0.00 0.00 69 1007.9
20260505011609 75 78 8.0 12.0 0.00 0.00 0.00 69 1007.9
20260505011600 75 226 5.0 9.0 0.00 0.00 0.00 70 1008.3
20260505011045 75 119 7.0 15.0 0.00 0.00 0.00 68 1008.0
20260505010549 75 107 8.0 15.0 0.00 0.00 0.00 68 1008.1
20260505010100 75 237 4.0 11.0 0.00 0.00 0.00 68 1008.3
20260505010051 75 101 7.0 13.0 0.00 0.00 0.00 68 1008.2
20260505005548 76 138 7.0 13.0 0.00 0.00 0.00 67 1008.2
20260505005049 76 119 7.0 14.0 0.00 0.00 0.00 67 1008.3
20260505004605 76 123 7.0 16.0 0.00 0.00 0.00 66 1008.3
20260505004551 76 223 5.0 9.0 0.00 0.00 0.00 68 1008.5
20260505004049 77 103 9.0 16.0 0.00 0.00 0.00 66 1008.3
20260505003548 77 103 9.0 16.0 0.00 0.00 0.00 66 1008.4
20260505003056 77 232 5.0 10.0 0.00 0.00 0.00 66 1008.5
20260505003053 77 104 6.0 15.0 0.00 0.00 0.00 65 1008.4
20260505002548 77 139 7.0 16.0 0.00 0.00 0.00 65 1008.5
20260505002048 77 142 8.0 17.0 0.00 0.00 0.00 65 1008.3
20260505001605 77 120 9.0 20.0 0.00 0.00 0.00 64 1008.5
20260505001552 77 231 5.0 10.0 0.00 0.00 0.00 65 1008.6
20260505001048 77 119 11.0 23.0 0.00 0.00 0.00 64 1008.2
20260505000548 78 131 12.0 23.0 0.00 0.00 0.00 63 1008.1
20260505000107 78 104 11.0 22.0 0.00 0.00 0.00 63 1008.2
20260505000100 78 233 5.0 12.0 0.00 0.00 0.00 64 1008.5
20260504235548 78 108 10.0 21.0 0.00 0.00 0.00 63 1008.0
20260504235051 78 134 12.0 22.0 0.00 0.00 0.00 63 1008.3
20260504234556 78 140 11.0 24.0 0.00 0.00 0.00 62 1008.6
20260504234551 78 229 7.0 18.0 0.00 0.00 0.00 63 1008.6
20260504234045 79 124 14.0 24.0 0.00 0.00 0.00 62 1008.4
20260504233549 78 111 12.0 22.0 0.00 0.00 0.00 63 1008.6
20260504233106 78 117 11.0 23.0 0.00 0.00 0.00 63 1008.5
20260504233104 79 217 9.0 17.0 0.00 0.00 0.00 62 1008.8
20260504232550 79 126 13.0 23.0 0.00 0.00 0.00 62 1008.6
20260504232054 79 138 13.0 22.0 0.00 0.00 0.00 62 1008.6
20260504231557 79 244 9.0 18.0 0.00 0.00 0.00 62 1008.9
20260504231548 79 108 10.0 21.0 0.00 0.00 0.00 62 1008.7
20260504231050 79 109 12.0 22.0 0.00 0.00 0.00 61 1008.7
20260504230550 79 132 12.0 23.0 0.00 0.00 0.00 62 1008.9
20260504230103 79 243 8.0 16.0 0.00 0.00 0.00 62 1009.1
20260504230048 79 98 10.0 26.0 0.00 0.00 0.00 62 1008.9
20260504225553 78 139 15.0 26.0 0.00 0.00 0.00 61 1008.9
20260504225050 79 133 11.0 24.0 0.00 0.00 0.00 61 1009.0
20260504224552 80 224 9.0 19.0 0.00 0.00 0.00 61 1009.3
20260504224051 79 101 11.0 20.0 0.00 0.00 0.00 61 1009.0
20260504223550 79 138 13.0 25.0 0.00 0.00 0.00 61 1009.0
20260504223101 79 238 10.0 17.0 0.00 0.00 0.00 60 1009.4
20260504223054 79 105 14.0 30.0 0.00 0.00 0.00 61 1009.0
20260504222553 79 140 11.0 30.0 0.00 0.00 0.00 60 1009.0
20260504222049 79 159 13.0 25.0 0.00 0.00 0.00 60 1009.1
20260504221555 79 215 11.0 19.0 0.00 0.00 0.00 60 1009.5
20260504221049 80 107 12.0 26.0 0.00 0.00 0.00 59 1009.1
20260504220550 80 132 11.0 26.0 0.00 0.00 0.00 59 1009.3
20260504220057 80 262 10.0 19.0 0.00 0.00 0.00 59 1009.4
20260504220052 79 136 14.0 23.0 0.00 0.00 0.00 59 1009.3
20260504215551 79 140 14.0 23.0 0.00 0.00 0.00 59 1009.2
20260504215050 79 141 12.0 24.0 0.00 0.00 0.00 60 1009.5
20260504214601 81 263 10.0 19.0 0.00 0.00 0.00 60 1009.9
20260504214549 79 126 13.0 25.0 0.00 0.00 0.00 58 1009.5
20260504214050 79 111 13.0 25.0 0.00 0.00 0.00 59 1009.7
20260504213550 80 125 11.0 21.0 0.00 0.00 0.00 59 1009.9
20260504213106 81 217 9.0 21.0 0.00 0.00 0.00 58 1010.1
20260504213055 80 137 11.0 28.0 0.00 0.00 0.00 58 1009.7
20260504212549 80 126 14.0 28.0 0.00 0.00 0.00 58 1009.8
20260504212050 80 129 14.0 24.0 0.00 0.00 0.00 58 1009.9
20260504211553 80 232 12.0 23.0 0.00 0.00 0.00 58 1010.3
20260504211550 79 105 15.0 25.0 0.00 0.00 0.00 58 1009.8
20260504211050 80 135 17.0 25.0 0.00 0.00 0.00 57 1009.9
20260504210550 80 120 13.0 26.0 0.00 0.00 0.00 58 1010.1
20260504210059 80 146 15.0 29.0 0.00 0.00 0.00 57 1010.2
20260504205550 80 145 17.0 29.0 0.00 0.00 0.00 56 1010.3
20260504205052 80 132 14.0 26.0 0.00 0.00 0.00 56 1010.4
20260504204555 80 258 9.0 20.0 0.00 0.00 0.00 57 1010.9
20260504204548 80 145 13.0 26.0 0.00 0.00 0.00 57 1010.5
20260504204049 81 150 13.0 24.0 0.00 0.00 0.00 56 1010.7
20260504203550 81 140 11.0 27.0 0.00 0.00 0.00 57 1010.8
20260504203056 81 260 9.0 21.0 0.00 0.00 0.00 57 1011.3
20260504202550 80 123 15.0 27.0 0.00 0.00 0.00 57 1010.8
20260504202053 80 116 13.0 27.0 0.00 0.00 0.00 58 1010.8
20260504201616 81 242 7.0 20.0 0.00 0.00 0.00 56 1011.5
20260504201551 79 159 15.0 26.0 0.00 0.00 0.00 57 1011.0
20260504201050 79 132 13.0 26.0 0.00 0.00 0.00 58 1011.3
20260504200550 80 131 14.0 26.0 0.00 0.00 0.00 57 1011.2
20260504200100 80 134 16.0 26.0 0.00 0.00 0.00 57 1011.4
20260504200057 80 256 8.0 17.0 0.00 0.00 0.00 57 1011.6
20260504195549 79 109 15.0 30.0 0.00 0.00 0.00 57 1011.4
20260504195050 79 137 18.0 30.0 0.00 0.00 0.00 57 1011.4
20260504194602 79 150 16.0 26.0 0.00 0.00 0.00 57 1011.5
20260504194555 80 263 9.0 22.0 0.00 0.00 0.00 55 1012.0
20260504194051 80 105 14.0 26.0 0.00 0.00 0.00 57 1011.7
20260504193551 80 167 11.0 27.0 0.00 0.00 0.00 57 1011.4
20260504193113 80 227 8.0 19.0 0.00 0.00 0.00 53 1012.2
20260504193050 79 142 16.0 27.0 0.00 0.00 0.00 57 1011.6
20260504192549 79 136 14.0 29.0 0.00 0.00 0.00 57 1011.7
20260504192050 79 92 16.0 29.0 0.00 0.00 0.00 58 1011.9
20260504191607 79 122 15.0 24.0 0.00 0.00 0.00 57 1012.2
20260504191558 80 263 9.0 15.0 0.00 0.00 0.00 53 1012.7
20260504191049 79 159 15.0 23.0 0.00 0.00 0.00 57 1012.2
20260504190554 79 163 12.0 25.0 0.00 0.00 0.00 57 1012.2
20260504190115 79 214 8.0 20.0 0.00 0.00 0.00 54 1012.9
20260504190053 78 97 14.0 25.0 0.00 0.00 0.00 57 1012.2
20260504185550 79 123 11.0 23.0 0.00 0.00 0.00 56 1012.4
20260504185052 78 138 12.0 20.0 0.00 0.00 0.00 57 1012.5
20260504184611 79 209 8.0 21.0 0.00 0.00 0.00 53 1012.9
20260504184552 79 102 11.0 29.0 0.00 0.00 0.00 57 1012.4
20260504184050 78 142 16.0 29.0 0.00 0.00 0.00 57 1012.6
20260504183550 78 108 12.0 24.0 0.00 0.00 0.00 56 1012.6
20260504183053 78 145 12.0 24.0 0.00 0.00 0.00 56 1012.7
20260504183050 78 202 9.0 18.0 0.00 0.00 0.00 52 1013.2
20260504182552 78 133 13.0 24.0 0.00 0.00 0.00 56 1012.8
20260504182049 78 136 12.0 25.0 0.00 0.00 0.00 56 1012.9
20260504181557 78 232 9.0 17.0 0.00 0.00 0.00 53 1013.2
20260504181050 77 168 15.0 25.0 0.00 0.00 0.00 55 1012.8
20260504180551 78 84 14.0 24.0 0.00 0.00 0.00 55 1012.8
20260504180054 78 232 8.0 17.0 0.00 0.00 0.00 53 1013.6
20260504175550 77 150 10.0 25.0 0.00 0.00 0.00 54 1013.4
20260504175050 77 144 14.0 28.0 0.00 0.00 0.00 54 1013.4
20260504174550 76 139 13.0 28.0 0.00 0.00 0.00 54 1013.5
20260504174051 77 127 15.0 26.0 0.00 0.00 0.00 53 1013.8
20260504173550 76 130 13.0 26.0 0.00 0.00 0.00 54 1013.9
20260504173051 76 138 18.0 25.0 0.00 0.00 0.00 53 1013.8
20260504173049 77 231 9.0 18.0 0.00 0.00 0.00 53 1014.1
20260504172552 76 147 10.0 28.0 0.00 0.00 0.00 56 1013.7
20260504172050 75 143 15.0 28.0 0.00 0.00 0.00 54 1013.9
20260504171557 77 221 8.0 16.0 0.00 0.00 0.00 52 1014.3
20260504171553 76 135 15.0 28.0 0.00 0.00 0.00 52 1014.0
20260504171050 75 114 14.0 25.0 0.00 0.00 0.00 54 1014.0
20260504170549 75 131 14.0 27.0 0.00 0.00 0.00 54 1014.1